When you browse on this site, cookies collect data to enhance your experience and personalize the content and advertising you see.
Visit our Privacy Policy to learn more. By continuing to use the site, you agree to this use of cookies and data.
  • In Lithuania
  • List of Countries
  • For 7 days
  • Water Temperature
  • Weather Map
  • Weather Widgets
  • user-avatar
    Login

    Hourly Weather Bor

    Today, 31 March, Tuesday

    Time Temperature Precipitation Wind Pressure Humidity
    00:00 +34°C° 0 mm 2 mps 718 mmHg 38%
    01:00 +34°C° 0 mm 2 mps 718 mmHg 39%
    02:00 +34°C° 0 mm 2 mps 717 mmHg 40%
    03:00 +32°C° 0 mm 1 mps 718 mmHg 42%
    04:00 +31°C° 0 mm 1 mps 718 mmHg 44%
    05:00 +31°C° 0 mm 1 mps 718 mmHg 46%
    06:00 +32°C° 0 mm 1 mps 719 mmHg 42%
    07:00 +35°C° 0 mm 2 mps 720 mmHg 39%
    08:00 +37°C° 0 mm 2 mps 721 mmHg 35%
    09:00 +38°C° 0 mm 3 mps 721 mmHg 31%
    10:00 +40°C° 0 mm 3 mps 721 mmHg 28%
    11:00 +43°C° 0 mm 3 mps 721 mmHg 24%
    12:00 +43°C° 0 mm 3 mps 720 mmHg 24%
    13:00 +43°C° 0 mm 3 mps 719 mmHg 24%
    14:00 +42°C° 0 mm 3 mps 718 mmHg 24%
    15:00 +42°C° 0 mm 3 mps 717 mmHg 25%
    16:00 +40°C° 0 mm 3 mps 717 mmHg 26%
    17:00 +40°C° 0 mm 3 mps 717 mmHg 27%
    18:00 +39°C° 0 mm 2 mps 717 mmHg 30%
    19:00 +37°C° 0 mm 2 mps 717 mmHg 33%
    20:00 +36°C° 0 mm 2 mps 718 mmHg 36%
    21:00 +36°C° 0 mm 2 mps 718 mmHg 37%
    22:00 +35°C° 0 mm 2 mps 718 mmHg 38%
    23:00 +35°C° 0 mm 2 mps 718 mmHg 39%

    Tomorrow, 1 April, Wednesday

    Time Temperature Precipitation Wind Pressure Humidity
    00:00 +35°C° 0 mm 2 mps 718 mmHg 40%
    01:00 +34°C° 0 mm 2 mps 718 mmHg 41%
    02:00 +34°C° 0 mm 3 mps 717 mmHg 42%
    03:00 +32°C° 0 mm 2 mps 718 mmHg 44%
    04:00 +32°C° 0 mm 2 mps 718 mmHg 45%
    05:00 +31°C° 0 mm 2 mps 718 mmHg 47%
    06:00 +34°C° 0 mm 3 mps 719 mmHg 44%
    07:00 +35°C° 0 mm 4 mps 720 mmHg 41%
    08:00 +36°C° 0 mm 5 mps 721 mmHg 38%
    09:00 +38°C° 0 mm 4 mps 721 mmHg 33%
    10:00 +42°C° 0 mm 4 mps 721 mmHg 28%
    11:00 +44°C° 0 mm 4 mps 721 mmHg 23%
    12:00 +44°C° 0 mm 3 mps 720 mmHg 21%
    13:00 +45°C° 0 mm 3 mps 719 mmHg 19%
    14:00 +46°C° 0 mm 3 mps 718 mmHg 17%
    15:00 +45°C° 0 mm 3 mps 718 mmHg 18%
    16:00 +43°C° 0 mm 2 mps 717 mmHg 19%
    17:00 +42°C° 0 mm 2 mps 717 mmHg 19%
    18:00 +41°C° 0 mm 2 mps 717 mmHg 22%
    19:00 +39°C° 0 mm 2 mps 718 mmHg 24%
    20:00 +37°C° 0 mm 1 mps 718 mmHg 27%
    21:00 +37°C° 0.2 mm 2 mps 718 mmHg 30%
    22:00 +35°C° 0.2 mm 3 mps 718 mmHg 34%
    23:00 +34°C° 0.2 mm 3 mps 718 mmHg 37%

    Day after tomorrow, 2 April, Thursday

    Time Temperature Precipitation Wind Pressure Humidity
    00:00 +34°C° 0 mm 3 mps 718 mmHg 36%
    01:00 +34°C° 0 mm 2 mps 717 mmHg 34%
    02:00 +34°C° 0 mm 2 mps 717 mmHg 33%
    03:00 +34°C° 0 mm 2 mps 717 mmHg 35%
    04:00 +34°C° 0 mm 2 mps 717 mmHg 37%
    05:00 +32°C° 0 mm 2 mps 718 mmHg 40%
    06:00 +34°C° 0 mm 3 mps 718 mmHg 38%
    07:00 +36°C° 0 mm 4 mps 719 mmHg 37%
    08:00 +37°C° 0 mm 5 mps 720 mmHg 35%
    09:00 +40°C° 0 mm 4 mps 720 mmHg 31%
    10:00 +42°C° 0 mm 4 mps 720 mmHg 26%
    11:00 +44°C° 0 mm 4 mps 720 mmHg 22%
    12:00 +44°C° 0 mm 3 mps 719 mmHg 20%
    13:00 +44°C° 0 mm 3 mps 718 mmHg 19%
    14:00 +43°C° 0 mm 2 mps 717 mmHg 17%
    15:00 +43°C° 0 mm 2 mps 717 mmHg 17%
    16:00 +43°C° 0 mm 2 mps 717 mmHg 17%
    17:00 +43°C° 0 mm 2 mps 717 mmHg 17%
    18:00 +41°C° 0 mm 2 mps 717 mmHg 19%
    19:00 +39°C° 0 mm 1 mps 717 mmHg 22%
    20:00 +37°C° 0 mm 1 mps 717 mmHg 24%
    21:00 +36°C° 0 mm 1 mps 717 mmHg 25%
    22:00 +35°C° 0 mm 1 mps 717 mmHg 27%
    23:00 +35°C° 0 mm 1 mps 717 mmHg 28%

    3 April, Friday

    Time Temperature Precipitation Wind Pressure Humidity
    00:00 +34°C° 0 mm 1 mps 717 mmHg 29%
    01:00 +34°C° 0 mm 1 mps 717 mmHg 31%
    02:00 +34°C° 0 mm 2 mps 716 mmHg 32%
    03:00 +32°C° 0 mm 2 mps 716 mmHg 34%
    04:00 +32°C° 0 mm 2 mps 717 mmHg 37%
    05:00 +31°C° 0 mm 2 mps 717 mmHg 39%
    06:00 +34°C° 0 mm 2 mps 718 mmHg 37%
    07:00 +35°C° 0 mm 3 mps 718 mmHg 35%
    08:00 +37°C° 0 mm 3 mps 719 mmHg 33%
    09:00 +39°C° 0 mm 3 mps 719 mmHg 29%
    10:00 +42°C° 0 mm 3 mps 719 mmHg 25%
    11:00 +44°C° 0 mm 3 mps 719 mmHg 22%
    12:00 +44°C° 0 mm 3 mps 718 mmHg 21%
    13:00 +43°C° 0 mm 2 mps 717 mmHg 20%
    14:00 +43°C° 0 mm 2 mps 716 mmHg 19%
    15:00 +43°C° 0 mm 2 mps 716 mmHg 19%
    16:00 +43°C° 0 mm 2 mps 716 mmHg 19%
    17:00 +43°C° 0 mm 2 mps 716 mmHg 19%
    18:00 +41°C° 0 mm 2 mps 716 mmHg 21%
    19:00 +40°C° 0 mm 1 mps 716 mmHg 23%
    20:00 +39°C° 0 mm 1 mps 717 mmHg 25%
    21:00 +37°C° 0 mm 1 mps 717 mmHg 27%
    22:00 +36°C° 0 mm 1 mps 717 mmHg 28%
    23:00 +36°C° 0 mm 2 mps 717 mmHg 29%

    4 April, Saturday

    Time Temperature Precipitation Wind Pressure Humidity
    00:00 +36°C° 0 mm 2 mps 716 mmHg 30%
    01:00 +36°C° 0 mm 3 mps 716 mmHg 32%
    02:00 +36°C° 0 mm 3 mps 716 mmHg 33%
    03:00 +35°C° 0 mm 3 mps 716 mmHg 35%
    04:00 +35°C° 0 mm 3 mps 716 mmHg 37%
    05:00 +34°C° 0 mm 3 mps 717 mmHg 40%
    06:00 +35°C° 0 mm 3 mps 718 mmHg 38%
    07:00 +36°C° 0 mm 4 mps 719 mmHg 36%
    08:00 +39°C° 0 mm 5 mps 720 mmHg 34%
    09:00 +40°C° 0 mm 4 mps 720 mmHg 30%
    10:00 +42°C° 0 mm 4 mps 720 mmHg 26%
    11:00 +44°C° 0 mm 4 mps 720 mmHg 23%
    12:00 +44°C° 0 mm 3 mps 719 mmHg 22%
    13:00 +44°C° 0 mm 3 mps 718 mmHg 20%
    14:00 +43°C° 0 mm 2 mps 717 mmHg 19%
    15:00 +43°C° 0 mm 2 mps 717 mmHg 20%
    16:00 +42°C° 0 mm 2 mps 717 mmHg 20%
    17:00 +42°C° 0 mm 2 mps 716 mmHg 20%
    18:00 +40°C° 0.2 mm 2 mps 717 mmHg 24%
    19:00 +39°C° 0.2 mm 2 mps 717 mmHg 28%
    20:00 +37°C° 0.2 mm 3 mps 718 mmHg 32%
    21:00 +36°C° 0.2 mm 3 mps 718 mmHg 36%
    22:00 +35°C° 0.2 mm 3 mps 718 mmHg 40%
    23:00 +34°C° 0.2 mm 3 mps 719 mmHg 45%

    5 April, Sunday

    Time Temperature Precipitation Wind Pressure Humidity
    00:00 +34°C° 0 mm 3 mps 718 mmHg 45%
    01:00 +34°C° 0 mm 3 mps 718 mmHg 46%
    02:00 +33°C° 0 mm 3 mps 718 mmHg 47%
    03:00 +32°C° 0 mm 2 mps 718 mmHg 49%
    04:00 +31°C° 0 mm 2 mps 718 mmHg 52%
    05:00 +31°C° 0 mm 1 mps 718 mmHg 54%
    06:00 +32°C° 0 mm 2 mps 719 mmHg 50%
    07:00 +34°C° 0 mm 3 mps 720 mmHg 45%
    08:00 +36°C° 0 mm 4 mps 721 mmHg 41%
    09:00 +38°C° 0 mm 3 mps 721 mmHg 36%
    10:00 +39°C° 0 mm 3 mps 720 mmHg 31%
    11:00 +42°C° 0 mm 3 mps 720 mmHg 26%
    12:00 +44°C° 0 mm 3 mps 719 mmHg 23%
    13:00 +45°C° 0 mm 2 mps 719 mmHg 21%
    14:00 +46°C° 0 mm 2 mps 718 mmHg 18%
    15:00 +45°C° 0 mm 2 mps 717 mmHg 18%
    16:00 +43°C° 0 mm 1 mps 717 mmHg 19%
    17:00 +42°C° 0 mm 1 mps 717 mmHg 19%
    18:00 +41°C° 0 mm 1 mps 717 mmHg 21%
    19:00 +39°C° 0 mm 1 mps 717 mmHg 23%
    20:00 +35°C° 0 mm 0 mps 717 mmHg 25%
    21:00 +37°C° 0 mm 1 mps 718 mmHg 27%
    22:00 +37°C° 0 mm 2 mps 718 mmHg 29%
    23:00 +37°C° 0 mm 3 mps 718 mmHg 31%
    Show more